• Join FlightAware (Why Join?)
  • Login
  • US Flag 
09:39PM EST


 

Airport Tracker/Info


-or-


 

Live Flight TrackerFlight Track Log ✈ SWA3505 ✈ 04-May-2013 ✈ KAUS - KDAL

Flight Track Log - Related Links

Times and Time Zones

All times are in EDT time to prevent confusion due to time zone crossing. See the SWA3505 flight status page for this flight to view local times or setup timezone preferences in your user account.

Time Position Orientation Groundspeed Altitude Reporting Facility
EDT Latitude Longitude Course Direction KTS MPH feet Rate Location/Type
07:23PM 30.2486 -97.4794 87° East 283 326 9,900  Level Houston Center
07:24PM 30.2836 -97.3817 67° East 339 390 12,200 2,806 Climbing Houston Center
07:25PM 30.3717 -97.3272 28° Northeast 358 412 15,700 3,902 Climbing Houston Center
07:26PM 30.4503 -97.2472 41° Northeast 371 427 20,200 3,073 Climbing Houston Center
07:27PM 30.5734 -97.2766 41° Northeast  Level FlightAware Approximate
07:27PM 30.5328 -97.1661 40° Northeast 383 441 22,000  Level Houston Center
07:28PM 30.6250 -97.0747 40° Northeast 427 491 22,000  Level Houston Center
07:29PM 30.7156 -96.9839 41° Northeast 430 495 22,000  Level Houston Center
07:30PM 30.8200 -96.8819 40° Northeast 424 488 22,000  Level Houston Center
07:31PM 30.9117 -96.7914 40° Northeast 429 494 22,000  Level Houston Center
07:32PM 31.0047 -96.6978 41° Northeast 439 505 22,000  Level Houston Center
07:33PM 31.1000 -96.6047 40° Northeast 445 512 22,000  Level Houston Center
07:34PM 31.1981 -96.5183 37° Northeast 438 504 22,000  Level Houston Center
07:35PM 31.3114 -96.4994 North 407 468 22,000  Level Houston Center
07:36PM 31.4250 -96.4864 North 407 468 22,000  Level Houston Center
07:37PM 31.5378 -96.4733 North 404 465 22,000  Level Houston Center
07:38PM 31.6378 -96.4617 North 405 466 22,000  Level Fort Worth Center
07:39PM 31.7461 -96.4483 North 399 459 22,000 -50 Level Fort Worth Center
07:40PM 31.8589 -96.4375 North 399 459 21,900 -1,400 Descending Fort Worth Center
07:41PM 31.9653 -96.4242 North 404 465 19,200 -2,750 Descending Fort Worth Center
07:42PM 32.0675 -96.4131 North 379 436 16,400 -2,750 Descending Fort Worth Center
07:43PM 32.1656 -96.4022 North 362 417 13,700 -2,650 Descending Fort Worth Center
07:44PM 32.2572 -96.3939 North 345 397 11,100 -1,600 Descending Fort Worth Center
07:45PM 32.3322 -96.3856 North 310 357 10,500 -650 Descending Fort Worth Center
07:46PM 32.4136 -96.3750 North 275 316 9,800 -950 Descending Fort Worth Center
07:47PM 32.4619 -96.4114 328° Northwest 231 266 8,600 -1,150 Descending Fort Worth Center
07:48PM 32.5189 -96.4722 318° Northwest 236 272 7,500 -1,000 Descending Fort Worth Center
07:49PM 32.5694 -96.5283 317° Northwest 247 284 6,600 -1,150 Descending Fort Worth Center
07:50PM 32.6197 -96.5872 315° West 252 290 5,200 -950 Descending Fort Worth Center
07:51PM 32.6661 -96.6411 316° Northwest 246 283 4,700 -558 Descending Fort Worth Center
07:52PM 32.7167 -96.6833 325° Northwest 194 223 4,000 -891 Descending Dallas / Fort Worth TRACON
07:53PM 32.7500 -96.7333 308° West 208 239 2,800 -900 Descending Dallas / Fort Worth TRACON
07:54PM 32.7833 -96.7833 308° West 156 180 2,200 -793 Descending Dallas / Fort Worth TRACON
07:55PM 32.8167 -96.8000 337° Northwest 119 137 1,200 -1,000 Descending Dallas / Fort Worth TRACON
08:01PM 32.8426 -96.8562 151° Southeast  Level FlightAware Approximate
08:08PM 32.8333 -96.8500 151° Southeast  Level FlightAware Approximate